EW5186 Weather Reports


Display with metric or nautical units.
time (UTC)temp
F
wind
direction
speed
MPH
gust
MPH
rain 1hr
in
rain 24hr
in
rain mn
in
humidity
%
barometer
mb
20260831073045 62 152 0.0 0.0 0.00 0.00 0.00 93 1020.5
20260831071524 63 152 0.0 0.0 0.00 0.00 0.00 93 1020.1
20260831070026 64 152 0.0 0.0 0.00 0.00 0.00 92 1020.3
20260831064504 64 152 0.0 0.0 0.00 0.00 0.00 90 1020.1
20260831063101 65 170 0.0 1.0 0.00 0.00 0.00 89 1019.9
20260831061542 66 262 0.0 4.0 0.00 0.00 0.00 89 1019.9
20260831060042 66 281 0.0 2.0 0.00 0.00 0.00 91 1019.6
20260831054522 66 272 0.0 1.0 0.00 0.00 0.00 90 1019.6
20260831053020 67 272 0.0 1.0 0.00 0.00 0.00 90 1019.6
20260831051600 67 177 0.0 0.0 0.00 0.00 0.00 91 1019.6
20260831050057 68 232 0.0 1.0 0.00 0.00 0.00 90 1019.6
20260831044538 69 236 0.0 6.0 0.00 0.00 0.00 91 1019.7
20260831043034 70 75 0.0 0.0 0.00 0.00 0.00 93 1019.6
20260831041555 70 75 0.0 0.0 0.00 0.00 0.00 93 1019.6
20260831040021 70 74 0.0 0.0 0.00 0.00 0.00 92 1019.6
20260831034520 70 74 0.0 0.0 0.00 0.00 0.00 92 1019.5
20260831033023 71 74 0.0 1.0 0.00 0.00 0.00 91 1019.6
20260831031519 71 290 0.0 2.0 0.00 0.00 0.00 91 1019.7
20260831030018 71 328 0.0 4.0 0.00 0.00 0.00 89 1019.7
20260831024517 72 249 1.0 6.0 0.00 0.00 0.00 88 1019.7
20260831023018 72 266 1.0 4.0 0.00 0.00 0.00 88 1019.7
20260831021509 72 273 1.0 5.0 0.00 0.00 0.00 89 1019.4
20260831020004 72 326 0.0 3.0 0.00 0.00 0.00 91 1019.5
20260831014506 72 149 0.0 2.0 0.00 0.00 0.00 91 1019.3
20260831013003 72 101 0.0 1.0 0.00 0.00 0.00 91 1019.2
20260831011505 72 53 0.0 1.0 0.00 0.00 0.00 90 1019.1
20260831010001 72 146 0.0 0.0 0.00 0.00 0.00 89 1019.3
20260831004600 72 150 0.0 0.0 0.00 0.00 0.00 88 1019.3
20260831003058 72 150 0.0 0.0 0.00 0.00 0.00 87 1019.2
20260831001542 72 150 0.0 0.0 0.00 0.00 0.00 86 1019.1
20260831000055 73 147 0.0 0.0 0.00 0.00 0.00 85 1019.0
20260830234529 73 60 0.0 2.0 0.00 0.00 0.00 84 1018.9
20260830233029 73 143 0.0 1.0 0.00 0.00 0.00 83 1018.9
20260830231528 73 92 0.0 2.0 0.00 0.00 0.00 83 1018.8
20260830230027 74 94 0.0 5.0 0.00 0.00 0.00 82 1018.9
20260830224527 74 294 0.0 2.0 0.00 0.00 0.00 82 1018.8
20260830223028 75 171 0.0 1.0 0.00 0.00 0.00 81 1018.9
20260830221525 75 140 0.0 3.0 0.00 0.00 0.00 79 1019.0
20260830220127 75 109 1.0 3.0 0.00 0.00 0.00 79 1018.9
20260830214515 75 201 0.0 4.0 0.00 0.00 0.00 78 1018.9
20260830213012 76 253 1.0 7.0 0.00 0.00 0.00 77 1018.9
20260830211511 76 175 0.0 6.0 0.00 0.00 0.00 76 1018.9
20260830210011 77 41 0.0 5.0 0.00 0.00 0.00 74 1019.0
20260830204508 77 249 0.0 4.0 0.00 0.00 0.00 73 1019.2
20260830203008 77 348 0.0 4.0 0.00 0.00 0.00 73 1019.2
20260830201507 77 271 0.0 3.0 0.00 0.00 0.00 71 1019.2
20260830200006 78 297 0.0 0.0 0.00 0.00 0.00 71 1019.3
20260830194505 79 323 0.0 4.0 0.00 0.00 0.00 70 1019.4
20260830193100 80 307 0.0 2.0 0.00 0.00 0.00 65 1019.5
20260830191544 80 146 0.0 6.0 0.00 0.00 0.00 65 1019.9
20260830190030 81 89 1.0 6.0 0.00 0.00 0.00 60 1020.2
20260830184533 80 82 2.0 7.0 0.00 0.00 0.00 61 1020.5
20260830183026 79 116 0.0 8.0 0.00 0.00 0.00 62 1020.6
20260830181524 79 152 1.0 8.0 0.00 0.00 0.00 61 1020.8
20260830180023 81 172 0.0 7.0 0.00 0.00 0.00 61 1020.8
20260830174523 81 201 1.0 7.0 0.00 0.00 0.00 57 1021.0
20260830173020 82 297 1.0 6.0 0.00 0.00 0.00 57 1021.2
20260830171520 82 130 2.0 10.0 0.00 0.00 0.00 57 1021.1
20260830170100 82 292 0.0 9.0 0.00 0.00 0.00 57 1021.4
20260830164559 81 170 1.0 5.0 0.00 0.00 0.00 59 1021.2
20260830163049 81 148 1.0 5.0 0.00 0.00 0.00 57 1021.5
20260830161543 80 302 0.0 5.0 0.00 0.00 0.00 59 1021.6
20260830160036 79 351 1.0 3.0 0.00 0.00 0.00 58 1021.7
20260830154535 78 104 2.0 6.0 0.00 0.00 0.00 60 1022.0
20260830153033 79 270 2.0 6.0 0.00 0.00 0.00 60 1022.5
20260830151531 78 135 0.0 5.0 0.00 0.00 0.00 62 1022.6
20260830150030 78 30 1.0 4.0 0.00 0.00 0.00 65 1022.7
20260830144541 78 243 2.0 7.0 0.00 0.00 0.00 66 1022.8
20260830143014 77 150 0.0 3.0 0.00 0.00 0.00 68 1022.9
20260830141503 76 86 0.0 3.0 0.00 0.00 0.00 68 1022.9
20260830140044 75 310 0.0 3.0 0.00 0.00 0.00 70 1023.0
20260830134544 74 326 0.0 4.0 0.00 0.00 0.00 71 1022.9
20260830133021 72 120 0.0 2.0 0.00 0.00 0.00 74 1023.0
20260830131520 72 122 0.0 3.0 0.00 0.00 0.00 73 1023.2
20260830130110 71 107 0.0 2.0 0.00 0.00 0.00 76 1023.3
20260830124558 70 64 0.0 1.0 0.00 0.00 0.00 77 1023.3
20260830123038 66 63 0.0 1.0 0.00 0.00 0.00 81 1023.3
20260830121531 65 267 0.0 0.0 0.00 0.00 0.00 84 1023.4
20260830120016 63 267 0.0 0.0 0.00 0.00 0.00 87 1023.7
20260830114511 62 267 0.0 0.0 0.00 0.00 0.00 89 1023.4
20260830113007 61 267 0.0 0.0 0.00 0.00 0.00 90 1023.4
20260830111505 60 267 0.0 0.0 0.00 0.00 0.00 90 1023.5
20260830110002 59 267 0.0 0.0 0.00 0.00 0.00 91 1023.5
20260830104600 59 267 0.0 0.0 0.00 0.00 0.00 91 1023.4
20260830103101 59 267 0.0 0.0 0.00 0.00 0.00 90 1023.4
20260830101559 59 267 0.0 0.0 0.00 0.00 0.00 90 1023.2
20260830100050 59 267 0.0 0.0 0.00 0.00 0.00 90 1023.4
20260830094539 59 267 0.0 0.0 0.00 0.00 0.00 91 1023.5
20260830093026 59 267 0.0 0.0 0.00 0.00 0.00 91 1023.5
20260830091533 59 267 0.0 0.0 0.00 0.00 0.00 91 1023.6
20260830090003 59 266 0.0 0.0 0.00 0.00 0.00 93 1023.5
20260830084633 58 265 0.0 0.0 0.00 0.00 0.00 93 1023.5
20260830083047 58 266 0.0 0.0 0.00 0.00 0.00 93 1023.7
20260830081558 58 265 0.0 0.0 0.00 0.00 0.00 93 1023.6
20260830080045 58 265 0.0 0.0 0.00 0.00 0.00 93 1023.7
20260830074546 57 265 0.0 0.0 0.00 0.00 0.00 93 1023.7